| time (UTC) | temp F | wind direction | speed knots | gust knots | rain 1hr in | rain 24hr in | rain mn in | humidity % | barometer mb |
| 20260502184156 | 83 | 298 | 4.3 | 9.6 | 0.00 | 0.00 | 0.00 | 69 | 1008.2 |
| 20260502183155 | 84 | 251 | 0.9 | 3.5 | 0.00 | 0.00 | 0.00 | 68 | 1007.6 |
| 20260502182154 | 84 | 265 | 1.7 | 5.2 | 0.00 | 0.00 | 0.00 | 66 | 1007.6 |
| 20260502181153 | 85 | 253 | 0.9 | 5.2 | 0.00 | 0.00 | 0.00 | 64 | 1007.6 |
| 20260502180152 | 85 | 270 | 2.6 | 7.0 | 0.00 | 0.00 | 0.00 | 63 | 1007.6 |
| 20260502164011 | 85 | 253 | 0.9 | 6.1 | 0.00 | 0.00 | 0.00 | 69 | 1007.6 |
| 20260502162938 | 84 | 278 | 1.7 | 7.0 | 0.00 | 0.00 | 0.00 | 68 | 1007.9 |
| 20260502161937 | 85 | 259 | 1.7 | 7.0 | 0.00 | 0.00 | 0.00 | 67 | 1007.9 |
| 20260502160936 | 85 | 216 | 1.7 | 9.6 | 0.00 | 0.00 | 0.00 | 66 | 1007.9 |
| 20260502151932 | 83 | 200 | 2.6 | 6.1 | 0.00 | 0.00 | 0.00 | 69 | 1008.3 |
| 20260502150931 | 82 | 175 | 0.9 | 6.1 | 0.00 | 0.00 | 0.00 | 71 | 1008.3 |
| 20260502130746 | 75 | 163 | 1.7 | 7.0 | 0.00 | 0.00 | 0.00 | 91 | 1008.2 |
| 20260502123712 | 74 | 163 | 1.7 | 5.2 | 0.00 | 0.00 | 0.00 | 96 | 1007.9 |
| 20260502122640 | 72 | 157 | 1.7 | 2.6 | 0.00 | 0.00 | 0.00 | 97 | 1007.9 |
| 20260502121639 | 71 | 173 | 1.7 | 2.6 | 0.00 | 0.00 | 0.00 | 98 | 1007.9 |
| 20260502120638 | 70 | 158 | 0.0 | 1.7 | 0.00 | 0.00 | 0.00 | 99 | 1007.6 |
| 20260502115637 | 69 | 314 | 0.0 | 0.0 | 0.00 | 0.00 | 0.00 | 99 | 1007.6 |
| 20260502114636 | 68 | 314 | 0.0 | 0.0 | 0.00 | 0.00 | 0.00 | 98 | 1007.6 |
| 20260502113624 | 68 | 314 | 0.0 | 0.0 | 0.00 | 0.00 | 0.00 | 98 | 1007.6 |
| 20260502112623 | 68 | 314 | 0.0 | 0.0 | 0.00 | 0.00 | 0.00 | 98 | 1007.6 |
| 20260502111622 | 68 | 313 | 0.0 | 0.0 | 0.00 | 0.00 | 0.00 | 98 | 1007.6 |
| 20260502110550 | 68 | 314 | 0.0 | 0.0 | 0.00 | 0.00 | 0.00 | 98 | 1007.2 |
| 20260502105549 | 67 | 314 | 0.0 | 0.0 | 0.00 | 0.00 | 0.00 | 98 | 1006.9 |
| 20260502104548 | 67 | 313 | 0.0 | 0.0 | 0.00 | 0.00 | 0.00 | 98 | 1006.9 |
| 20260502103547 | 67 | 313 | 0.0 | 0.0 | 0.00 | 0.00 | 0.00 | 98 | 1006.5 |
| 20260502102515 | 67 | 313 | 0.0 | 0.0 | 0.00 | 0.00 | 0.00 | 97 | 1006.6 |
| 20260502101514 | 67 | 313 | 0.0 | 0.0 | 0.00 | 0.00 | 0.00 | 97 | 1006.9 |
| 20260502100513 | 67 | 313 | 0.0 | 0.0 | 0.00 | 0.00 | 0.00 | 97 | 1006.9 |
| 20260502091438 | 68 | 314 | 0.0 | 0.0 | 0.00 | 0.00 | 0.00 | 96 | 1007.6 |
| 20260502090437 | 69 | 313 | 0.0 | 0.0 | 0.00 | 0.00 | 0.00 | 96 | 1007.6 |
| 20260502071356 | 71 | 269 | 0.0 | 0.9 | 0.00 | 0.00 | 0.00 | 94 | 1007.6 |
| 20260502070355 | 71 | 269 | 0.0 | 0.9 | 0.00 | 0.00 | 0.00 | 94 | 1007.6 |
| 20260502065354 | 71 | 278 | 0.0 | 0.9 | 0.00 | 0.00 | 0.00 | 94 | 1007.6 |
| 20260502064354 | 71 | 278 | 0.0 | 0.9 | 0.00 | 0.00 | 0.00 | 94 | 1007.9 |
| 20260502063353 | 71 | 280 | 0.0 | 0.9 | 0.00 | 0.00 | 0.00 | 94 | 1007.9 |
| 20260502062321 | 71 | 262 | 0.0 | 0.9 | 0.00 | 0.00 | 0.00 | 94 | 1008.3 |
| 20260502061320 | 71 | 255 | 0.9 | 0.9 | 0.00 | 0.00 | 0.00 | 94 | 1008.3 |
| 20260502060319 | 71 | 255 | 0.0 | 0.9 | 0.00 | 0.00 | 0.00 | 95 | 1008.3 |
| 20260502055318 | 70 | 131 | 0.0 | 0.0 | 0.00 | 0.00 | 0.00 | 95 | 1008.3 |
| 20260502054246 | 71 | 131 | 0.0 | 0.0 | 0.00 | 0.00 | 0.00 | 95 | 1008.3 |
| 20260502053244 | 71 | 131 | 0.0 | 0.0 | 0.00 | 0.00 | 0.00 | 95 | 1008.3 |
| 20260502052244 | 70 | 131 | 0.0 | 0.0 | 0.00 | 0.00 | 0.00 | 95 | 1008.6 |
| 20260502051212 | 71 | 131 | 0.0 | 0.0 | 0.00 | 0.00 | 0.00 | 94 | 1008.6 |
| 20260502050140 | 71 | 131 | 0.0 | 0.0 | 0.00 | 0.00 | 0.00 | 94 | 1008.3 |
| 20260502045139 | 71 | 131 | 0.0 | 0.0 | 0.00 | 0.00 | 0.00 | 94 | 1008.6 |
| 20260502044138 | 71 | 131 | 0.0 | 0.0 | 0.00 | 0.00 | 0.00 | 93 | 1008.6 |
| 20260502043137 | 71 | 131 | 0.0 | 0.0 | 0.00 | 0.00 | 0.00 | 93 | 1008.3 |
| 20260502042136 | 72 | 131 | 0.0 | 0.0 | 0.00 | 0.00 | 0.00 | 92 | 1008.3 |
| 20260502041136 | 72 | 131 | 0.0 | 0.0 | 0.00 | 0.00 | 0.00 | 92 | 1008.6 |
| 20260502040135 | 72 | 131 | 0.0 | 0.0 | 0.00 | 0.00 | 0.00 | 92 | 1008.6 |
| 20260502035134 | 73 | 131 | 0.0 | 0.0 | 0.00 | 0.00 | 0.00 | 91 | 1008.6 |
| 20260502034133 | 73 | 131 | 0.0 | 0.0 | 0.00 | 0.00 | 0.00 | 90 | 1008.6 |
| 20260502033132 | 73 | 131 | 0.0 | 0.0 | 0.00 | 0.00 | 0.00 | 89 | 1008.6 |
| 20260502032131 | 74 | 131 | 0.0 | 0.0 | 0.00 | 0.00 | 0.00 | 88 | 1008.6 |
| 20260502031130 | 74 | 131 | 0.0 | 0.9 | 0.00 | 0.00 | 0.00 | 88 | 1008.6 |
| 20260502030129 | 75 | 79 | 0.0 | 0.9 | 0.00 | 0.00 | 0.00 | 87 | 1008.6 |
| 20260502025129 | 75 | 95 | 0.9 | 0.9 | 0.00 | 0.00 | 0.00 | 86 | 1008.6 |
| 20260502024128 | 75 | 71 | 0.0 | 0.9 | 0.00 | 0.00 | 0.00 | 85 | 1008.6 |
| 20260502023127 | 76 | 66 | 0.9 | 0.9 | 0.00 | 0.00 | 0.00 | 84 | 1008.6 |
| 20260502022126 | 76 | 64 | 0.0 | 0.9 | 0.00 | 0.00 | 0.00 | 84 | 1008.6 |
| 20260502021125 | 76 | 101 | 0.0 | 0.9 | 0.00 | 0.00 | 0.00 | 83 | 1008.6 |
| 20260502020124 | 77 | 101 | 0.0 | 0.9 | 0.00 | 0.00 | 0.00 | 82 | 1008.9 |
| 20260502015124 | 77 | 103 | 0.0 | 1.7 | 0.00 | 0.00 | 0.00 | 81 | 1008.9 |
| 20260502014052 | 77 | 103 | 0.0 | 1.7 | 0.00 | 0.00 | 0.00 | 80 | 1008.9 |
| 20260502013019 | 78 | 37 | 0.9 | 1.7 | 0.00 | 0.00 | 0.00 | 79 | 1008.6 |
| 20260502012018 | 78 | 17 | 0.9 | 1.7 | 0.00 | 0.00 | 0.00 | 79 | 1008.6 |
| 20260502011018 | 78 | 355 | 0.9 | 2.6 | 0.00 | 0.00 | 0.00 | 78 | 1008.6 |
| 20260502005945 | 79 | 53 | 0.0 | 1.7 | 0.00 | 0.00 | 0.00 | 78 | 1008.6 |
| 20260502004944 | 79 | 27 | 0.9 | 2.6 | 0.00 | 0.00 | 0.00 | 77 | 1008.6 |
| 20260502003944 | 79 | 45 | 0.9 | 3.5 | 0.00 | 0.00 | 0.00 | 77 | 1008.2 |
| 20260502002912 | 79 | 38 | 1.7 | 2.6 | 0.00 | 0.00 | 0.00 | 77 | 1007.9 |
| 20260502001911 | 80 | 14 | 0.9 | 3.5 | 0.00 | 0.00 | 0.00 | 76 | 1007.9 |
| 20260502000910 | 80 | 96 | 1.7 | 4.3 | 0.00 | 0.00 | 0.00 | 76 | 1007.6 |
| 20260501235909 | 80 | 14 | 1.7 | 5.2 | 0.00 | 0.00 | 0.00 | 75 | 1007.6 |
| 20260501234908 | 80 | 29 | 1.7 | 5.2 | 0.00 | 0.00 | 0.00 | 75 | 1007.6 |
| 20260501233907 | 81 | 60 | 1.7 | 5.2 | 0.00 | 0.00 | 0.00 | 75 | 1007.2 |
| 20260501232906 | 81 | 136 | 0.9 | 6.1 | 0.00 | 0.00 | 0.00 | 75 | 1007.2 |
| 20260501231905 | 82 | 117 | 1.7 | 7.0 | 0.00 | 0.00 | 0.00 | 73 | 1006.9 |
| 20260501230905 | 82 | 56 | 2.6 | 6.1 | 0.00 | 0.00 | 0.00 | 72 | 1006.9 |
| 20260501225904 | 83 | 60 | 1.7 | 6.1 | 0.00 | 0.00 | 0.00 | 70 | 1006.9 |
| 20260501224903 | 83 | 39 | 2.6 | 7.0 | 0.00 | 0.00 | 0.00 | 68 | 1006.9 |
| 20260501223902 | 85 | 44 | 2.6 | 7.0 | 0.00 | 0.00 | 0.00 | 66 | 1006.6 |
| 20260501222901 | 86 | 48 | 1.7 | 7.0 | 0.00 | 0.00 | 0.00 | 64 | 1006.6 |
| 20260501221900 | 89 | 58 | 1.7 | 6.1 | 0.00 | 0.00 | 0.00 | 57 | 1006.2 |
| 20260501220828 | 89 | 301 | 0.9 | 2.6 | 0.00 | 0.00 | 0.00 | 51 | 1006.2 |
| 20260501215828 | 89 | 309 | 0.0 | 2.6 | 0.00 | 0.00 | 0.00 | 50 | 1006.2 |
| 20260501214815 | 90 | 283 | 0.9 | 3.5 | 0.00 | 0.00 | 0.00 | 49 | 1006.2 |
| 20260501213743 | 90 | 221 | 1.7 | 3.5 | 0.00 | 0.00 | 0.00 | 49 | 1006.2 |
| 20260501212743 | 90 | 286 | 0.9 | 4.3 | 0.00 | 0.00 | 0.00 | 47 | 1006.2 |
| 20260501211742 | 90 | 192 | 1.7 | 3.5 | 0.00 | 0.00 | 0.00 | 47 | 1006.2 |
| 20260501210741 | 90 | 189 | 0.9 | 6.1 | 0.00 | 0.00 | 0.00 | 47 | 1006.2 |
| 20260501205740 | 90 | 237 | 0.9 | 6.1 | 0.00 | 0.00 | 0.00 | 47 | 1006.2 |
| 20260501204707 | 90 | 248 | 0.9 | 5.2 | 0.00 | 0.00 | 0.00 | 46 | 1006.2 |
| 20260501203706 | 91 | 290 | 0.9 | 4.3 | 0.00 | 0.00 | 0.00 | 46 | 1006.2 |
| 20260501202635 | 91 | 170 | 1.7 | 4.3 | 0.00 | 0.00 | 0.00 | 46 | 1006.6 |
| 20260501201634 | 92 | 249 | 0.9 | 3.5 | 0.00 | 0.00 | 0.00 | 45 | 1006.6 |
| 20260501200602 | 91 | 357 | 0.9 | 3.5 | 0.00 | 0.00 | 0.00 | 46 | 1006.6 |
| 20260501195601 | 91 | 300 | 1.7 | 4.3 | 0.00 | 0.00 | 0.00 | 45 | 1006.9 |
| 20260501194600 | 92 | 315 | 1.7 | 5.2 | 0.00 | 0.00 | 0.00 | 44 | 1006.9 |
| 20260501193559 | 90 | 283 | 0.9 | 5.2 | 0.00 | 0.00 | 0.00 | 47 | 1007.2 |
| 20260501192455 | 91 | 316 | 1.7 | 3.5 | 0.00 | 0.00 | 0.00 | 46 | 1007.6 |
| 20260501191455 | 91 | 250 | 0.9 | 2.6 | 0.00 | 0.00 | 0.00 | 46 | 1007.6 |
| 20260501190454 | 91 | 267 | 0.9 | 4.3 | 0.00 | 0.00 | 0.00 | 45 | 1007.6 |
| 20260501185453 | 91 | 172 | 2.6 | 5.2 | 0.00 | 0.00 | 0.00 | 46 | 1007.9 |